Weather Service Report


280 
ASUS45 KREV 301810
RWRNV 
NEVADA REGIONAL WEATHER ROUNDUP
NATIONAL WEATHER SERVICE RENO NV
1100 AM PDT SAT MAY 30 2015

NOTE: "FAIR" INDICATES FEW OR NO CLOUDS BELOW 12,000 FEET WITH NO
SIGNIFICANT WEATHER AND/OR OBSTRUCTIONS TO VISIBILITY.

NVZ001-003-004-301900-
WESTERN NEVADA
  
CITY           SKY/WX    TMP DP  RH WIND       PRES   REMARKS
RENO           PTSUNNY   81  26  13 CALM      30.06F                  
6HR MIN TEMP:  56; 6HR MAX TEMP:  81;                                

CARSON CITY    FAIR      81  19  10 E3        30.07F                  
MINDEN         FAIR      79  25  13 S3        30.07                   
SLIDE MTN        N/A     54  27  35 W25         N/A                   
PYRAMID LAKE     N/A     72 N/A N/A NE6         N/A                   
FALLON         PTSUNNY   79  31  17 E3        30.04S                  
6HR MIN TEMP:  57; 6HR MAX TEMP:  80;                                

LOVELOCK       PTSUNNY   81  30  15 CALM      30.04S                  
6HR MIN TEMP:  52; 6HR MAX TEMP:  81;                                

HAWTHORNE      SUNNY     81  36  19 CALM      30.06S                  
$$

NVZ002-CAZ072-073-301900-
NORTHERN AND CENTRAL SIERRA
  
CITY           SKY/WX    TMP DP  RH WIND       PRES   REMARKS
S. LAKE TAHOE  PTSUNNY   73  42  32 VRB5      30.17F                  
6HR MIN TEMP:  43; 6HR MAX TEMP:  74;                                

TRUCKEE        SUNNY     70  27  19 SW9       30.17S                  
SQUAW VLY 8000   N/A     59  27  29 SW13        N/A                   
SUSANVILLE     SUNNY     73  36  25 NE3       30.07S                  
BLUE CANYON    PTSUNNY   68  27  21 S9        30.16R                  
MAMMOTH LAKES  FAIR      73  23  15 SE8       30.24F                  
BRIDGEPORT     FAIR      77  21  12 S8G18     30.17S                  
$$

NVZ030-031-036-301900-
NORTHERN NEVADA
  
CITY           SKY/WX    TMP DP  RH WIND       PRES   REMARKS
ELKO           MOSUNNY   77  47  34 W6        30.08F                  
6HR MIN TEMP:  54; 6HR MAX TEMP:  78;                                

WINNEMUCCA     CLOUDY    77  32  19 W12       30.05S                  
6HR MIN TEMP:  47; 6HR MAX TEMP:  77;                                

WENDOVER       SUNNY     72  46  40 E7        30.10S                  
$$

NVZ035-037-301900-
CENTRAL NEVADA
  
CITY           SKY/WX    TMP DP  RH WIND       PRES   REMARKS
ELY            SUNNY     76  25  15 S12G25    30.20S                  
6HR MIN TEMP:  48; 6HR MAX TEMP:  78;                                

EUREKA           N/A     79  27  14 S6        30.14S                  
6HR MIN TEMP:  50; 6HR MAX TEMP:  80;                                

$$

NVZ013-014-301900-
SOUTH CENTRAL NEVADA
  
CITY           SKY/WX    TMP DP  RH WIND       PRES   REMARKS
TONOPAH        MOSUNNY   81  24  12 S14G20    30.15S                  
6HR MIN TEMP:  53; 6HR MAX TEMP:  81;                                

$$

NVZ017-020-022-301900-
SOUTHERN NEVADA
  
CITY           SKY/WX    TMP DP  RH WIND       PRES   REMARKS
LAS VEGAS      MOSUNNY   92  26   9 SE6       29.95S                  
6HR MIN TEMP:  74; 6HR MAX TEMP:  92;                                

N. LAS VEGAS   SUNNY     91  21   8 S7        29.98F                  
6HR MIN TEMP:  72; 6HR MAX TEMP:  91;                                

NELLIS AFB     SUNNY     92  28   9 CALM      29.96S                  
6HR MIN TEMP:  75; 6HR MAX TEMP:  92;                                

HENDERSON      SUNNY     92  33  12 VRB5      30.01F                  
6HR MIN TEMP:  69; 6HR MAX TEMP:  92;                                

MERCURY        SUNNY     91  21   8 VRB5      30.02                   
6HR MIN TEMP:  64; 6HR MAX TEMP:  91;                                

$$

Return to Home page


Western Regional Climate Center, wrcc@dri.edu